| time (UTC) | temp F | wind direction | speed MPH | gust MPH | rain 1hr in | rain 24hr in | rain mn in | humidity % | barometer mb |
| 20260906191420 | 77 | 56 | 0.0 | 1.0 | 0.00 | 0.04 | 0.04 | 95 | 1055.7 |
| 20260906190914 | 77 | 32 | 1.0 | 2.0 | 0.00 | 0.04 | 0.04 | 94 | 1055.8 |
| 20260906190413 | 77 | 47 | 2.0 | 4.0 | 0.00 | 0.04 | 0.04 | 96 | 1055.8 |
| 20260906185908 | 77 | 44 | 0.0 | 1.0 | 0.00 | 0.04 | 0.04 | 96 | 1055.6 |
| 20260906185407 | 77 | 33 | 1.0 | 3.0 | 0.00 | 0.04 | 0.04 | 97 | 1056.0 |
| 20260906184906 | 77 | 43 | 0.0 | 3.0 | 0.07 | 0.04 | 0.04 | 97 | 1056.1 |
| 20260906184401 | 77 | 35 | 1.0 | 4.0 | 0.12 | 0.04 | 0.04 | 96 | 1056.0 |
| 20260906183857 | 77 | 42 | 2.0 | 3.0 | 0.17 | 0.03 | 0.03 | 95 | 1055.9 |
| 20260906183353 | 79 | 32 | 2.0 | 8.0 | 0.12 | 0.02 | 0.02 | 91 | 1056.2 |
| 20260906182848 | 83 | 66 | 2.0 | 7.0 | 0.00 | 0.00 | 0.00 | 76 | 1056.2 |
| 20260906182343 | 87 | 31 | 3.0 | 6.0 | 0.00 | 0.00 | 0.00 | 69 | 1056.1 |
| 20260906181838 | 87 | 80 | 3.0 | 3.0 | 0.00 | 0.00 | 0.00 | 65 | 1056.0 |
| 20260906181335 | 88 | 53 | 3.0 | 6.0 | 0.00 | 0.00 | 0.00 | 66 | 1056.1 |
| 20260906180829 | 89 | 5 | 2.0 | 3.0 | 0.00 | 0.00 | 0.00 | 62 | 1056.3 |
| 20260906180324 | 89 | 57 | 0.0 | 6.0 | 0.00 | 0.00 | 0.00 | 60 | 1056.3 |
| 20260906175821 | 88 | 271 | 1.0 | 6.0 | 0.00 | 0.00 | 0.00 | 61 | 1056.1 |
| 20260906175317 | 86 | 132 | 3.0 | 7.0 | 0.00 | 0.00 | 0.00 | 65 | 1056.3 |
| 20260906174816 | 87 | 214 | 6.0 | 9.0 | 0.00 | 0.00 | 0.00 | 64 | 1056.4 |
| 20260906174316 | 89 | 154 | 1.0 | 2.0 | 0.00 | 0.00 | 0.00 | 59 | 1056.4 |
| 20260906173811 | 90 | 203 | 3.0 | 7.0 | 0.00 | 0.00 | 0.00 | 59 | 1056.5 |
| 20260906173307 | 89 | 57 | 0.0 | 1.0 | 0.00 | 0.00 | 0.00 | 60 | 1056.6 |
| 20260906172805 | 87 | 343 | 2.0 | 3.0 | 0.00 | 0.00 | 0.00 | 63 | 1056.3 |
| 20260906172305 | 87 | 51 | 1.0 | 3.0 | 0.00 | 0.00 | 0.00 | 67 | 1056.6 |
| 20260906171756 | 88 | 23 | 1.0 | 2.0 | 0.00 | 0.00 | 0.00 | 66 | 1056.7 |
| 20260906171251 | 89 | 30 | 1.0 | 3.0 | 0.00 | 0.00 | 0.00 | 64 | 1056.8 |
| 20260906170747 | 88 | 14 | 3.0 | 4.0 | 0.00 | 0.00 | 0.00 | 64 | 1056.9 |
| 20260906170242 | 90 | 22 | 2.0 | 7.0 | 0.00 | 0.00 | 0.00 | 63 | 1056.7 |
| 20260906165733 | 91 | 21 | 1.0 | 3.0 | 0.00 | 0.00 | 0.00 | 57 | 1056.8 |
| 20260906165232 | 91 | 332 | 2.0 | 3.0 | 0.00 | 0.00 | 0.00 | 56 | 1056.8 |
| 20260906164732 | 89 | 95 | 1.0 | 2.0 | 0.00 | 0.00 | 0.00 | 61 | 1056.8 |
| 20260906164227 | 88 | 209 | 0.0 | 2.0 | 0.00 | 0.00 | 0.00 | 63 | 1057.0 |
| 20260906163723 | 89 | 175 | 3.0 | 7.0 | 0.00 | 0.00 | 0.00 | 63 | 1056.9 |
| 20260906163219 | 91 | 125 | 6.0 | 8.0 | 0.00 | 0.00 | 0.00 | 61 | 1057.2 |
| 20260906162716 | 89 | 40 | 1.0 | 2.0 | 0.00 | 0.00 | 0.00 | 62 | 1057.2 |
| 20260906162210 | 87 | 253 | 3.0 | 6.0 | 0.00 | 0.00 | 0.00 | 65 | 1057.2 |
| 20260906161705 | 89 | 230 | 7.0 | 8.0 | 0.00 | 0.00 | 0.00 | 61 | 1056.9 |
| 20260906161204 | 89 | 336 | 1.0 | 4.0 | 0.00 | 0.00 | 0.00 | 63 | 1057.3 |
| 20260906160703 | 89 | 135 | 3.0 | 4.0 | 0.00 | 0.00 | 0.00 | 64 | 1056.9 |
| 20260906160203 | 87 | 192 | 2.0 | 3.0 | 0.00 | 0.00 | 0.00 | 67 | 1056.9 |
| 20260906155700 | 84 | 148 | 1.0 | 4.0 | 0.00 | 0.00 | 0.00 | 73 | 1057.2 |
| 20260906155156 | 84 | 107 | 1.0 | 4.0 | 0.00 | 0.00 | 0.00 | 77 | 1056.9 |
| 20260906154651 | 83 | 186 | 1.0 | 6.0 | 0.00 | 0.00 | 0.00 | 76 | 1057.2 |
| 20260906154151 | 83 | 144 | 1.0 | 2.0 | 0.00 | 0.00 | 0.00 | 76 | 1056.9 |
| 20260906153650 | 83 | 112 | 3.0 | 4.0 | 0.00 | 0.00 | 0.00 | 77 | 1057.0 |
| 20260906153144 | 83 | 121 | 1.0 | 2.0 | 0.00 | 0.00 | 0.00 | 76 | 1056.8 |
| 20260906152645 | 82 | 125 | 3.0 | 3.0 | 0.00 | 0.00 | 0.00 | 79 | 1056.7 |
| 20260906152139 | 83 | 168 | 2.0 | 4.0 | 0.00 | 0.00 | 0.00 | 79 | 1056.8 |
| 20260906151634 | 84 | 136 | 5.0 | 7.0 | 0.00 | 0.00 | 0.00 | 78 | 1056.7 |
| 20260906151130 | 86 | 142 | 6.0 | 8.0 | 0.00 | 0.00 | 0.00 | 73 | 1056.7 |
| 20260906150625 | 85 | 119 | 2.0 | 3.0 | 0.00 | 0.00 | 0.00 | 73 | 1056.7 |
| 20260906150120 | 86 | 161 | 2.0 | 4.0 | 0.00 | 0.00 | 0.00 | 72 | 1056.6 |
| 20260906145619 | 85 | 311 | 1.0 | 4.0 | 0.00 | 0.00 | 0.00 | 74 | 1056.5 |
| 20260906145114 | 83 | 132 | 1.0 | 2.0 | 0.00 | 0.00 | 0.00 | 75 | 1056.6 |
| 20260906144608 | 84 | 247 | 3.0 | 4.0 | 0.00 | 0.00 | 0.00 | 77 | 1056.3 |
| 20260906144104 | 84 | 129 | 2.0 | 3.0 | 0.00 | 0.00 | 0.00 | 76 | 1056.4 |
| 20260906143603 | 84 | 188 | 3.0 | 6.0 | 0.00 | 0.00 | 0.00 | 77 | 1056.6 |
| 20260906143100 | 83 | 142 | 2.0 | 3.0 | 0.00 | 0.00 | 0.00 | 79 | 1056.7 |
| 20260906142559 | 81 | 340 | 0.0 | 3.0 | 0.00 | 0.00 | 0.00 | 81 | 1056.6 |
| 20260906142055 | 81 | 184 | 1.0 | 3.0 | 0.00 | 0.00 | 0.00 | 82 | 1056.4 |
| 20260906141554 | 81 | 202 | 3.0 | 6.0 | 0.00 | 0.00 | 0.00 | 82 | 1056.5 |
| 20260906141049 | 81 | 187 | 3.0 | 4.0 | 0.00 | 0.00 | 0.00 | 82 | 1056.3 |
| 20260906140548 | 83 | 200 | 2.0 | 6.0 | 0.00 | 0.00 | 0.00 | 81 | 1056.5 |
| 20260906140043 | 82 | 150 | 1.0 | 4.0 | 0.00 | 0.00 | 0.00 | 80 | 1056.4 |
| 20260906135540 | 81 | 108 | 4.0 | 7.0 | 0.00 | 0.00 | 0.00 | 82 | 1056.2 |
| 20260906135037 | 82 | 116 | 4.0 | 6.0 | 0.00 | 0.00 | 0.00 | 80 | 1056.4 |
| 20260906134537 | 81 | 98 | 1.0 | 6.0 | 0.00 | 0.00 | 0.00 | 81 | 1056.2 |
| 20260906134031 | 81 | 81 | 0.0 | 2.0 | 0.00 | 0.00 | 0.00 | 81 | 1056.1 |
| 20260906133527 | 80 | 129 | 4.0 | 6.0 | 0.00 | 0.00 | 0.00 | 83 | 1056.1 |
| 20260906133023 | 80 | 184 | 3.0 | 4.0 | 0.00 | 0.00 | 0.00 | 83 | 1056.2 |
| 20260906132518 | 79 | 202 | 4.0 | 7.0 | 0.00 | 0.00 | 0.00 | 84 | 1056.3 |
| 20260906132013 | 78 | 170 | 2.0 | 6.0 | 0.00 | 0.00 | 0.00 | 86 | 1056.1 |
| 20260906131509 | 77 | 190 | 3.0 | 4.0 | 0.00 | 0.00 | 0.00 | 87 | 1056.1 |
| 20260906131004 | 77 | 168 | 3.0 | 4.0 | 0.00 | 0.00 | 0.00 | 88 | 1055.7 |
| 20260906130504 | 77 | 244 | 0.0 | 1.0 | 0.00 | 0.00 | 0.00 | 88 | 1055.6 |
| 20260906130004 | 76 | 243 | 1.0 | 1.0 | 0.00 | 0.00 | 0.00 | 89 | 1055.6 |
| 20260906125501 | 76 | 243 | 1.0 | 2.0 | 0.00 | 0.00 | 0.00 | 89 | 1055.5 |
| 20260906125001 | 76 | 243 | 0.0 | 0.0 | 0.00 | 0.00 | 0.00 | 89 | 1055.5 |
| 20260906124456 | 75 | 243 | 0.0 | 0.0 | 0.00 | 0.00 | 0.00 | 88 | 1055.3 |
| 20260906123951 | 75 | 243 | 0.0 | 0.0 | 0.00 | 0.00 | 0.00 | 88 | 1055.2 |
| 20260906123450 | 75 | 243 | 0.0 | 0.0 | 0.00 | 0.00 | 0.00 | 89 | 1055.4 |
| 20260906122945 | 75 | 243 | 0.0 | 0.0 | 0.00 | 0.00 | 0.00 | 89 | 1055.2 |
| 20260906122445 | 75 | 243 | 0.0 | 0.0 | 0.00 | 0.00 | 0.00 | 89 | 1055.2 |
| 20260906121942 | 75 | 243 | 0.0 | 0.0 | 0.00 | 0.00 | 0.00 | 89 | 1055.1 |
| 20260906121437 | 75 | 243 | 0.0 | 0.0 | 0.00 | 0.00 | 0.00 | 90 | 1055.0 |
| 20260906120934 | 75 | 244 | 0.0 | 0.0 | 0.00 | 0.00 | 0.00 | 89 | 1055.2 |
| 20260906120429 | 75 | 244 | 0.0 | 0.0 | 0.00 | 0.00 | 0.00 | 88 | 1055.0 |
| 20260906115925 | 76 | 243 | 0.0 | 0.0 | 0.00 | 0.00 | 0.00 | 88 | 1054.8 |
| 20260906115420 | 76 | 243 | 0.0 | 0.0 | 0.00 | 0.00 | 0.00 | 88 | 1054.8 |
| 20260906114915 | 76 | 243 | 0.0 | 0.0 | 0.00 | 0.00 | 0.00 | 88 | 1054.9 |
| 20260906114410 | 76 | 244 | 0.0 | 0.0 | 0.00 | 0.00 | 0.00 | 87 | 1054.7 |
| 20260906113906 | 76 | 244 | 0.0 | 0.0 | 0.00 | 0.00 | 0.00 | 87 | 1054.6 |
| 20260906113404 | 76 | 244 | 0.0 | 0.0 | 0.00 | 0.00 | 0.00 | 87 | 1054.5 |
| 20260906112859 | 77 | 244 | 0.0 | 0.0 | 0.00 | 0.00 | 0.00 | 86 | 1054.4 |
| 20260906112355 | 77 | 244 | 0.0 | 0.0 | 0.00 | 0.00 | 0.00 | 87 | 1054.5 |
| 20260906111849 | 77 | 244 | 0.0 | 0.0 | 0.00 | 0.00 | 0.00 | 87 | 1054.5 |
| 20260906111349 | 77 | 244 | 0.0 | 0.0 | 0.00 | 0.00 | 0.00 | 87 | 1054.1 |
| 20260906110844 | 77 | 244 | 0.0 | 0.0 | 0.00 | 0.00 | 0.00 | 87 | 1054.2 |
| 20260906110340 | 77 | 244 | 0.0 | 0.0 | 0.00 | 0.00 | 0.00 | 86 | 1053.8 |
| 20260906105839 | 77 | 244 | 0.0 | 0.0 | 0.00 | 0.00 | 0.00 | 86 | 1053.9 |
| 20260906105335 | 77 | 244 | 0.0 | 0.0 | 0.00 | 0.00 | 0.00 | 86 | 1054.2 |
| 20260906104831 | 77 | 244 | 0.0 | 0.0 | 0.00 | 0.00 | 0.00 | 86 | 1054.1 |
| 20260906104329 | 77 | 244 | 0.0 | 0.0 | 0.00 | 0.00 | 0.00 | 86 | 1053.9 |
| 20260906103828 | 77 | 244 | 0.0 | 0.0 | 0.00 | 0.00 | 0.00 | 86 | 1053.8 |
| 20260906103326 | 77 | 244 | 0.0 | 0.0 | 0.00 | 0.00 | 0.00 | 86 | 1053.8 |
| 20260906102822 | 77 | 244 | 0.0 | 0.0 | 0.00 | 0.00 | 0.00 | 85 | 1053.8 |
| 20260906102321 | 77 | 244 | 0.0 | 0.0 | 0.00 | 0.00 | 0.00 | 85 | 1053.8 |
| 20260906101817 | 77 | 244 | 0.0 | 0.0 | 0.00 | 0.00 | 0.00 | 85 | 1053.8 |
| 20260906101312 | 78 | 244 | 0.0 | 2.0 | 0.00 | 0.00 | 0.00 | 85 | 1053.9 |
| 20260906100808 | 78 | 257 | 0.0 | 1.0 | 0.00 | 0.00 | 0.00 | 85 | 1053.8 |
| 20260906100306 | 78 | 257 | 0.0 | 1.0 | 0.00 | 0.00 | 0.00 | 85 | 1053.9 |
| 20260906095802 | 78 | 270 | 0.0 | 0.0 | 0.00 | 0.00 | 0.00 | 85 | 1053.9 |
| 20260906095257 | 78 | 255 | 1.0 | 2.0 | 0.00 | 0.00 | 0.00 | 85 | 1053.8 |
| 20260906094756 | 78 | 222 | 0.0 | 2.0 | 0.00 | 0.00 | 0.00 | 85 | 1053.9 |
| 20260906094251 | 78 | 228 | 1.0 | 3.0 | 0.00 | 0.00 | 0.00 | 85 | 1054.1 |
| 20260906093747 | 78 | 250 | 1.0 | 1.0 | 0.00 | 0.00 | 0.00 | 85 | 1053.8 |
| 20260906093238 | 78 | 255 | 2.0 | 3.0 | 0.00 | 0.00 | 0.00 | 85 | 1053.9 |
| 20260906092732 | 78 | 242 | 0.0 | 3.0 | 0.00 | 0.00 | 0.00 | 84 | 1053.9 |
| 20260906092226 | 78 | 239 | 3.0 | 4.0 | 0.00 | 0.00 | 0.00 | 84 | 1053.8 |
| 20260906091722 | 78 | 244 | 2.0 | 4.0 | 0.00 | 0.00 | 0.00 | 84 | 1054.1 |
| 20260906091213 | 78 | 248 | 2.0 | 4.0 | 0.00 | 0.00 | 0.00 | 84 | 1053.9 |
| 20260906090709 | 78 | 251 | 1.0 | 3.0 | 0.00 | 0.00 | 0.00 | 84 | 1053.8 |
| 20260906090208 | 78 | 246 | 2.0 | 3.0 | 0.00 | 0.00 | 0.00 | 84 | 1053.9 |
| 20260906085707 | 78 | 219 | 1.0 | 2.0 | 0.00 | 0.00 | 0.00 | 83 | 1054.1 |
| 20260906085206 | 78 | 196 | 1.0 | 3.0 | 0.00 | 0.00 | 0.00 | 83 | 1053.8 |
| 20260906084701 | 79 | 221 | 2.0 | 3.0 | 0.00 | 0.00 | 0.00 | 83 | 1053.8 |
| 20260906084200 | 79 | 219 | 2.0 | 6.0 | 0.00 | 0.00 | 0.00 | 83 | 1054.1 |
| 20260906083655 | 79 | 240 | 1.0 | 3.0 | 0.00 | 0.00 | 0.00 | 82 | 1053.8 |
| 20260906083151 | 79 | 284 | 2.0 | 4.0 | 0.00 | 0.00 | 0.00 | 82 | 1053.9 |
| 20260906082646 | 79 | 232 | 1.0 | 2.0 | 0.00 | 0.00 | 0.00 | 82 | 1054.1 |
| 20260906082141 | 79 | 178 | 1.0 | 3.0 | 0.00 | 0.00 | 0.00 | 81 | 1053.8 |
| 20260906081637 | 79 | 229 | 4.0 | 4.0 | 0.00 | 0.00 | 0.00 | 81 | 1054.3 |
| 20260906081132 | 79 | 227 | 1.0 | 4.0 | 0.00 | 0.00 | 0.00 | 80 | 1054.1 |
| 20260906080629 | 80 | 211 | 1.0 | 3.0 | 0.00 | 0.00 | 0.00 | 80 | 1054.3 |
| 20260906080125 | 80 | 200 | 2.0 | 6.0 | 0.00 | 0.00 | 0.00 | 80 | 1054.2 |
| 20260906075624 | 80 | 184 | 3.0 | 3.0 | 0.00 | 0.00 | 0.00 | 79 | 1054.5 |
| 20260906075119 | 80 | 204 | 1.0 | 4.0 | 0.00 | 0.00 | 0.00 | 79 | 1054.4 |
| 20260906074614 | 80 | 224 | 4.0 | 4.0 | 0.00 | 0.00 | 0.00 | 79 | 1054.5 |
| 20260906074107 | 80 | 184 | 3.0 | 4.0 | 0.00 | 0.00 | 0.00 | 79 | 1054.7 |
| 20260906073602 | 80 | 188 | 2.0 | 6.0 | 0.00 | 0.00 | 0.00 | 78 | 1054.6 |
| 20260906073058 | 80 | 184 | 4.0 | 7.0 | 0.00 | 0.00 | 0.00 | 78 | 1054.6 |
| 20260906072552 | 80 | 134 | 1.0 | 4.0 | 0.00 | 0.00 | 0.00 | 79 | 1054.8 |
| 20260906072049 | 80 | 206 | 2.0 | 3.0 | 0.00 | 0.00 | 0.00 | 79 | 1054.7 |
| 20260906071545 | 80 | 151 | 2.0 | 3.0 | 0.00 | 0.00 | 0.00 | 79 | 1054.6 |
| 20260906071040 | 80 | 186 | 0.0 | 4.0 | 0.00 | 0.00 | 0.00 | 78 | 1054.8 |
| 20260906070536 | 80 | 188 | 1.0 | 3.0 | 0.00 | 0.00 | 0.00 | 78 | 1054.8 |
| 20260906070032 | 81 | 162 | 1.0 | 3.0 | 0.00 | 0.00 | 0.00 | 78 | 1054.8 |
| 20260906065531 | 81 | 166 | 4.0 | 6.0 | 0.00 | 0.00 | 0.00 | 77 | 1054.9 |
| 20260906065027 | 81 | 114 | 1.0 | 3.0 | 0.00 | 0.00 | 0.00 | 77 | 1054.9 |
| 20260906064522 | 81 | 161 | 1.0 | 3.0 | 0.00 | 0.00 | 0.00 | 77 | 1055.1 |
| 20260906064017 | 81 | 144 | 2.0 | 2.0 | 0.00 | 0.00 | 0.00 | 77 | 1054.9 |
| 20260906063513 | 81 | 142 | 1.0 | 3.0 | 0.00 | 0.00 | 0.00 | 76 | 1055.2 |
| 20260906063008 | 82 | 205 | 0.0 | 4.0 | 0.00 | 0.00 | 0.00 | 76 | 1055.1 |
| 20260906062502 | 82 | 170 | 1.0 | 4.0 | 0.00 | 0.00 | 0.00 | 76 | 1055.1 |
| 20260906061957 | 82 | 198 | 2.0 | 6.0 | 0.00 | 0.00 | 0.00 | 76 | 1055.1 |
| 20260906061453 | 82 | 187 | 2.0 | 3.0 | 0.00 | 0.00 | 0.00 | 76 | 1055.2 |
| 20260906060948 | 82 | 176 | 2.0 | 8.0 | 0.00 | 0.00 | 0.00 | 76 | 1055.0 |
| 20260906060444 | 82 | 228 | 3.0 | 9.0 | 0.00 | 0.00 | 0.00 | 75 | 1055.2 |
| 20260906055941 | 82 | 180 | 2.0 | 6.0 | 0.00 | 0.00 | 0.00 | 75 | 1055.2 |
| 20260906055436 | 82 | 186 | 5.0 | 7.0 | 0.00 | 0.00 | 0.00 | 75 | 1055.3 |
| 20260906054931 | 82 | 226 | 3.0 | 6.0 | 0.00 | 0.00 | 0.00 | 75 | 1055.3 |
| 20260906054426 | 82 | 195 | 3.0 | 11.0 | 0.00 | 0.00 | 0.00 | 75 | 1055.1 |
| 20260906053922 | 82 | 184 | 1.0 | 6.0 | 0.00 | 0.00 | 0.00 | 74 | 1055.1 |
| 20260906053418 | 83 | 129 | 1.0 | 8.0 | 0.00 | 0.00 | 0.00 | 74 | 1054.9 |
| 20260906052913 | 83 | 147 | 2.0 | 7.0 | 0.00 | 0.00 | 0.00 | 74 | 1055.2 |
| 20260906052409 | 83 | 183 | 6.0 | 9.0 | 0.00 | 0.00 | 0.00 | 74 | 1055.1 |
| 20260906051906 | 83 | 172 | 2.0 | 8.0 | 0.00 | 0.00 | 0.00 | 73 | 1055.2 |
| 20260906051406 | 83 | 152 | 5.0 | 8.0 | 0.00 | 0.00 | 0.00 | 72 | 1055.2 |
| 20260906050902 | 83 | 169 | 5.0 | 9.0 | 0.00 | 0.00 | 0.00 | 72 | 1055.2 |
| 20260906050356 | 83 | 223 | 3.0 | 6.0 | 0.00 | 0.00 | 0.00 | 71 | 1055.3 |
| 20260906045855 | 83 | 187 | 3.0 | 4.0 | 0.00 | 0.00 | 0.00 | 71 | 1055.4 |
| 20260906045355 | 84 | 172 | 4.0 | 9.0 | 0.00 | 0.00 | 0.00 | 71 | 1055.2 |
| 20260906044851 | 84 | 156 | 4.0 | 6.0 | 0.00 | 0.00 | 0.00 | 70 | 1055.3 |
| 20260906044351 | 84 | 186 | 6.0 | 7.0 | 0.00 | 0.00 | 0.00 | 70 | 1055.3 |
| 20260906043847 | 84 | 147 | 2.0 | 4.0 | 0.00 | 0.00 | 0.00 | 70 | 1055.3 |
| 20260906043343 | 84 | 182 | 4.0 | 7.0 | 0.00 | 0.00 | 0.00 | 70 | 1055.4 |
| 20260906042838 | 84 | 185 | 6.0 | 8.0 | 0.00 | 0.00 | 0.00 | 69 | 1055.5 |
| 20260906042337 | 84 | 218 | 6.0 | 8.0 | 0.00 | 0.00 | 0.00 | 69 | 1055.3 |
| 20260906041833 | 84 | 115 | 5.0 | 8.0 | 0.00 | 0.00 | 0.00 | 69 | 1055.3 |
| 20260906041328 | 84 | 147 | 4.0 | 7.0 | 0.00 | 0.00 | 0.00 | 69 | 1055.2 |
| 20260906040828 | 84 | 173 | 4.0 | 7.0 | 0.00 | 0.00 | 0.00 | 69 | 1055.3 |
| 20260906040323 | 85 | 159 | 4.0 | 7.0 | 0.00 | 0.00 | 0.00 | 69 | 1055.3 |
| 20260906035819 | 85 | 173 | 5.0 | 8.0 | 0.00 | 0.00 | 0.00 | 68 | 1055.4 |
| 20260906035314 | 85 | 167 | 3.0 | 6.0 | 0.00 | 0.00 | 0.00 | 68 | 1055.2 |
| 20260906034809 | 85 | 204 | 5.0 | 7.0 | 0.00 | 0.00 | 0.00 | 67 | 1055.3 |
| 20260906034303 | 85 | 128 | 7.0 | 11.0 | 0.00 | 0.00 | 0.00 | 67 | 1055.1 |
| 20260906033759 | 86 | 212 | 5.0 | 9.0 | 0.00 | 0.00 | 0.00 | 66 | 1055.0 |
| 20260906033258 | 86 | 122 | 4.0 | 9.0 | 0.00 | 0.00 | 0.00 | 65 | 1055.0 |
| 20260906032756 | 86 | 115 | 6.0 | 11.0 | 0.00 | 0.00 | 0.00 | 65 | 1055.0 |
| 20260906032255 | 86 | 115 | 5.0 | 7.0 | 0.00 | 0.00 | 0.00 | 63 | 1055.0 |
| 20260906031750 | 86 | 134 | 9.0 | 10.0 | 0.00 | 0.00 | 0.00 | 62 | 1054.8 |
| 20260906031247 | 87 | 174 | 5.0 | 8.0 | 0.00 | 0.00 | 0.00 | 62 | 1054.8 |
| 20260906030746 | 87 | 123 | 4.0 | 7.0 | 0.00 | 0.00 | 0.00 | 62 | 1054.7 |
| 20260906030242 | 87 | 121 | 4.0 | 6.0 | 0.00 | 0.00 | 0.00 | 61 | 1054.6 |
| 20260906025742 | 87 | 129 | 3.0 | 8.0 | 0.00 | 0.00 | 0.00 | 60 | 1054.5 |
| 20260906025241 | 87 | 163 | 5.0 | 11.0 | 0.00 | 0.00 | 0.00 | 60 | 1054.3 |
| 20260906024740 | 87 | 135 | 2.0 | 9.0 | 0.00 | 0.00 | 0.00 | 60 | 1054.2 |
| 20260906024234 | 87 | 129 | 4.0 | 6.0 | 0.00 | 0.00 | 0.00 | 59 | 1053.9 |
| 20260906023730 | 87 | 138 | 2.0 | 6.0 | 0.00 | 0.00 | 0.00 | 59 | 1053.8 |
| 20260906023225 | 88 | 124 | 1.0 | 3.0 | 0.00 | 0.00 | 0.00 | 59 | 1053.7 |
| 20260906022720 | 88 | 143 | 5.0 | 8.0 | 0.00 | 0.00 | 0.00 | 58 | 1053.5 |
| 20260906022216 | 88 | 137 | 3.0 | 6.0 | 0.00 | 0.00 | 0.00 | 57 | 1053.5 |
| 20260906021711 | 88 | 115 | 3.0 | 4.0 | 0.00 | 0.00 | 0.00 | 57 | 1053.3 |
| 20260906021209 | 88 | 162 | 4.0 | 7.0 | 0.00 | 0.00 | 0.00 | 57 | 1053.4 |
| 20260906020705 | 88 | 147 | 5.0 | 7.0 | 0.00 | 0.00 | 0.00 | 57 | 1053.3 |
| 20260906020159 | 89 | 121 | 3.0 | 7.0 | 0.00 | 0.00 | 0.00 | 56 | 1053.3 |
| 20260906015654 | 89 | 118 | 7.0 | 9.0 | 0.00 | 0.00 | 0.00 | 55 | 1053.2 |
| 20260906015152 | 89 | 86 | 2.0 | 8.0 | 0.00 | 0.00 | 0.00 | 55 | 1053.0 |
| 20260906014646 | 90 | 113 | 7.0 | 9.0 | 0.00 | 0.00 | 0.00 | 54 | 1053.0 |
| 20260906014142 | 90 | 134 | 4.0 | 10.0 | 0.00 | 0.00 | 0.00 | 53 | 1053.0 |
| 20260906013638 | 90 | 123 | 5.0 | 9.0 | 0.00 | 0.00 | 0.00 | 53 | 1052.9 |
| 20260906013134 | 91 | 188 | 6.0 | 8.0 | 0.00 | 0.00 | 0.00 | 52 | 1052.9 |
| 20260906012633 | 91 | 151 | 6.0 | 11.0 | 0.00 | 0.00 | 0.00 | 51 | 1052.9 |
| 20260906012128 | 91 | 127 | 4.0 | 8.0 | 0.00 | 0.00 | 0.00 | 51 | 1052.8 |
| 20260906011624 | 91 | 162 | 4.0 | 10.0 | 0.00 | 0.00 | 0.00 | 51 | 1052.8 |
| 20260906011124 | 91 | 173 | 6.0 | 13.0 | 0.00 | 0.00 | 0.00 | 50 | 1052.7 |
| 20260906010619 | 91 | 122 | 7.0 | 11.0 | 0.00 | 0.00 | 0.00 | 49 | 1052.8 |
| 20260906010116 | 91 | 123 | 5.0 | 9.0 | 0.00 | 0.00 | 0.00 | 48 | 1052.8 |
| 20260906005609 | 91 | 101 | 2.0 | 3.0 | 0.00 | 0.00 | 0.00 | 48 | 1052.6 |
| 20260906005108 | 91 | 131 | 1.0 | 3.0 | 0.00 | 0.00 | 0.00 | 46 | 1052.7 |
| 20260906004608 | 92 | 135 | 2.0 | 2.0 | 0.00 | 0.00 | 0.00 | 46 | 1052.6 |
| 20260906004102 | 93 | 133 | 2.0 | 4.0 | 0.00 | 0.00 | 0.00 | 45 | 1052.8 |
| 20260906003553 | 93 | 155 | 3.0 | 4.0 | 0.00 | 0.00 | 0.00 | 44 | 1052.5 |
| 20260906003048 | 93 | 135 | 0.0 | 3.0 | 0.00 | 0.00 | 0.00 | 44 | 1052.6 |
| 20260906002543 | 93 | 131 | 2.0 | 3.0 | 0.00 | 0.00 | 0.00 | 44 | 1052.3 |
| 20260906002037 | 94 | 102 | 0.0 | 2.0 | 0.00 | 0.00 | 0.00 | 43 | 1052.4 |
| 20260906001533 | 94 | 130 | 1.0 | 2.0 | 0.00 | 0.00 | 0.00 | 43 | 1052.3 |
| 20260906001027 | 94 | 188 | 2.0 | 2.0 | 0.00 | 0.00 | 0.00 | 42 | 1052.3 |
| 20260906000524 | 94 | 130 | 2.0 | 4.0 | 0.00 | 0.00 | 0.00 | 43 | 1052.3 |
| 20260906000018 | 94 | 114 | 1.0 | 6.0 | 0.00 | 0.00 | 0.00 | 43 | 1052.5 |
| 20260905235512 | 94 | 139 | 2.0 | 7.0 | 0.00 | 0.00 | 0.00 | 42 | 1052.5 |
| 20260905235007 | 94 | 159 | 2.0 | 7.0 | 0.00 | 0.00 | 0.00 | 42 | 1052.5 |
| 20260905234503 | 95 | 119 | 2.0 | 3.0 | 0.00 | 0.00 | 0.00 | 41 | 1052.4 |
| 20260905234002 | 95 | 123 | 4.0 | 8.0 | 0.00 | 0.00 | 0.00 | 41 | 1052.5 |
| 20260905233457 | 94 | 96 | 2.0 | 3.0 | 0.00 | 0.00 | 0.00 | 41 | 1052.4 |
| 20260905232956 | 95 | 112 | 4.0 | 6.0 | 0.00 | 0.00 | 0.00 | 41 | 1052.4 |
| 20260905232452 | 95 | 158 | 5.0 | 9.0 | 0.00 | 0.00 | 0.00 | 41 | 1052.5 |
| 20260905231948 | 94 | 119 | 1.0 | 4.0 | 0.00 | 0.00 | 0.00 | 41 | 1052.5 |
| 20260905231443 | 94 | 134 | 1.0 | 2.0 | 0.00 | 0.00 | 0.00 | 43 | 1052.4 |
| 20260905230934 | 94 | 134 | 6.0 | 8.0 | 0.00 | 0.00 | 0.00 | 43 | 1052.7 |
| 20260905230432 | 94 | 131 | 7.0 | 9.0 | 0.00 | 0.00 | 0.00 | 43 | 1052.5 |
| 20260905225925 | 95 | 113 | 4.0 | 8.0 | 0.00 | 0.00 | 0.00 | 42 | 1052.5 |
| 20260905225420 | 95 | 146 | 4.0 | 13.0 | 0.00 | 0.00 | 0.00 | 42 | 1052.5 |
| 20260905224915 | 95 | 125 | 6.0 | 8.0 | 0.00 | 0.00 | 0.00 | 42 | 1052.4 |
| 20260905224411 | 96 | 129 | 4.0 | 10.0 | 0.00 | 0.00 | 0.00 | 40 | 1052.4 |
| 20260905223905 | 95 | 65 | 0.0 | 9.0 | 0.00 | 0.00 | 0.00 | 40 | 1052.4 |
| 20260905223403 | 96 | 73 | 1.0 | 3.0 | 0.00 | 0.00 | 0.00 | 40 | 1052.5 |
| 20260905222903 | 96 | 131 | 4.0 | 7.0 | 0.00 | 0.00 | 0.00 | 41 | 1052.3 |
| 20260905222402 | 96 | 126 | 8.0 | 9.0 | 0.00 | 0.00 | 0.00 | 41 | 1052.4 |
| 20260905221858 | 95 | 76 | 2.0 | 6.0 | 0.00 | 0.00 | 0.00 | 40 | 1052.5 |
| 20260905221355 | 95 | 64 | 5.0 | 9.0 | 0.00 | 0.00 | 0.00 | 40 | 1052.5 |
| 20260905220850 | 96 | 174 | 4.0 | 6.0 | 0.00 | 0.00 | 0.00 | 41 | 1052.7 |
| 20260905220347 | 96 | 147 | 3.0 | 11.0 | 0.00 | 0.00 | 0.00 | 41 | 1052.6 |
| 20260905215846 | 97 | 125 | 8.0 | 11.0 | 0.00 | 0.00 | 0.00 | 41 | 1052.5 |
| 20260905215341 | 97 | 152 | 6.0 | 8.0 | 0.00 | 0.00 | 0.00 | 40 | 1052.8 |
| 20260905214832 | 97 | 85 | 4.0 | 9.0 | 0.00 | 0.00 | 0.00 | 40 | 1052.5 |
| 20260905214327 | 98 | 141 | 7.0 | 9.0 | 0.00 | 0.00 | 0.00 | 41 | 1052.6 |
| 20260905213822 | 97 | 150 | 4.0 | 9.0 | 0.00 | 0.00 | 0.00 | 42 | 1052.6 |
| 20260905213318 | 97 | 197 | 4.0 | 7.0 | 0.00 | 0.00 | 0.00 | 41 | 1052.6 |
| 20260905212813 | 96 | 178 | 5.0 | 10.0 | 0.00 | 0.00 | 0.00 | 41 | 1052.6 |
| 20260905212312 | 97 | 104 | 2.0 | 8.0 | 0.00 | 0.00 | 0.00 | 40 | 1052.5 |
| 20260905211807 | 97 | 75 | 1.0 | 3.0 | 0.00 | 0.00 | 0.00 | 39 | 1052.7 |
| 20260905211302 | 97 | 134 | 2.0 | 7.0 | 0.00 | 0.00 | 0.00 | 39 | 1052.7 |
| 20260905210759 | 98 | 129 | 3.0 | 6.0 | 0.00 | 0.00 | 0.00 | 38 | 1052.7 |
| 20260905210258 | 98 | 208 | 3.0 | 4.0 | 0.00 | 0.00 | 0.00 | 39 | 1052.8 |
| 20260905205757 | 97 | 242 | 2.0 | 3.0 | 0.00 | 0.00 | 0.00 | 39 | 1053.0 |
| 20260905205252 | 98 | 147 | 4.0 | 10.0 | 0.00 | 0.00 | 0.00 | 39 | 1053.0 |
| 20260905204751 | 98 | 170 | 5.0 | 7.0 | 0.00 | 0.00 | 0.00 | 40 | 1053.0 |
| 20260905204248 | 98 | 156 | 3.0 | 10.0 | 0.00 | 0.00 | 0.00 | 40 | 1053.0 |
| 20260905203747 | 97 | 54 | 1.0 | 6.0 | 0.00 | 0.00 | 0.00 | 40 | 1053.4 |
| 20260905203242 | 95 | 8 | 3.0 | 4.0 | 0.00 | 0.00 | 0.00 | 41 | 1053.4 |
| 20260905202738 | 96 | 134 | 2.0 | 9.0 | 0.00 | 0.00 | 0.00 | 42 | 1053.4 |
| 20260905202238 | 96 | 141 | 5.0 | 8.0 | 0.00 | 0.00 | 0.00 | 41 | 1053.5 |
| 20260905201733 | 95 | 122 | 3.0 | 10.0 | 0.00 | 0.00 | 0.00 | 43 | 1053.5 |
| 20260905201228 | 96 | 141 | 5.0 | 10.0 | 0.00 | 0.00 | 0.00 | 41 | 1053.6 |
| 20260905200723 | 96 | 72 | 0.0 | 2.0 | 0.00 | 0.00 | 0.00 | 42 | 1053.7 |
| 20260905200219 | 96 | 146 | 2.0 | 3.0 | 0.00 | 0.00 | 0.00 | 42 | 1053.8 |
| 20260905195717 | 95 | 129 | 2.0 | 6.0 | 0.00 | 0.00 | 0.00 | 43 | 1054.1 |
| 20260905195213 | 95 | 124 | 4.0 | 11.0 | 0.00 | 0.00 | 0.00 | 43 | 1054.2 |
| 20260905194708 | 96 | 122 | 5.0 | 8.0 | 0.00 | 0.00 | 0.00 | 42 | 1054.2 |
| 20260905194207 | 95 | 180 | 4.0 | 6.0 | 0.00 | 0.00 | 0.00 | 42 | 1054.2 |
| 20260905193701 | 93 | 150 | 4.0 | 7.0 | 0.00 | 0.00 | 0.00 | 45 | 1054.3 |
| 20260905193156 | 94 | 138 | 9.0 | 9.0 | 0.00 | 0.00 | 0.00 | 43 | 1054.4 |
| 20260905192652 | 96 | 158 | 3.0 | 3.0 | 0.00 | 0.00 | 0.00 | 41 | 1054.5 |
| 20260905192149 | 96 | 138 | 4.0 | 4.0 | 0.00 | 0.00 | 0.00 | 41 | 1054.4 |
| 20260905191648 | 96 | 252 | 2.0 | 3.0 | 0.00 | 0.00 | 0.00 | 41 | 1054.8 |